period_start,C,m1,H,J0,J1,J2,J3,J4,J5,JA,JB,JC,JD,JJ,JK,JN,#
2013-12-13 00:00:22,0.14,0.42,0.00,26.72,27.90,31.07,5.88,29.46,1024.91,2039.99,3376.13,3207.38,3479.25,349.75,322.60,3.82,0000 0000 0000 0000 000000
2013-12-13 00:01:22,0.14,0.42,0.00,26.70,27.90,31.07,6.02,29.29,1024.89,2039.99,3376.05,3207.15,3479.09,350.78,322.78,3.82,0000 0000 0000 0000 000000
2013-12-13 00:02:23,0.07,0.42,0.00,26.71,27.90,31.08,5.88,29.04,1024.67,2039.99,3375.93,3207.05,3479.03,349.75,322.27,3.83,0000 0000 0000 0000 000000
2013-12-13 00:03:23,0.05,0.42,0.00,26.72,27.90,31.10,5.79,29.25,1024.78,2039.99,3375.54,3207.02,3478.99,350.18,322.69,3.83,0000 0000 0000 0000 000000
2013-12-13 00:04:23,0.06,0.42,0.00,26.71,27.90,31.09,6.03,29.42,1024.91,2039.99,3375.21,3206.99,3478.76,350.39,322.92,3.84,0000 0000 0000 0000 000000
2013-12-13 00:05:24,0.08,0.42,0.00,26.72,27.90,31.13,5.95,29.50,1024.92,2039.99,3375.08,3206.95,3478.35,349.96,322.52,3.84,0000 0000 0000 0000 000000
2013-12-13 00:06:24,0.08,0.42,0.00,26.72,27.90,31.11,5.90,29.58,1024.92,2039.99,3375.01,3206.62,3478.14,350.45,322.97,3.85,0000 0000 0000 0000 000000
2013-12-13 00:07:24,0.10,0.42,0.00,26.70,27.90,31.08,5.94,29.42,1024.89,2039.99,3374.67,3206.31,3478.05,349.14,322.53,3.86,0000 0000 0000 0000 000000
2013-12-13 00:08:24,0.12,0.42,0.00,26.72,27.90,31.08,6.11,29.67,1024.92,2039.99,3374.25,3206.12,3478.00,350.74,322.95,3.86,0000 0000 0000 0000 000000
2013-12-13 00:09:25,0.08,0.42,0.00,26.71,27.90,31.13,5.81,29.33,1024.92,2039.99,3374.09,3206.04,3477.93,349.91,322.49,3.87,0000 0000 0000 0000 000000
2013-12-13 00:10:25,0.04,0.42,0.00,26.73,27.90,31.13,5.94,29.42,1024.92,2039.99,3374.03,3206.01,3477.82,350.48,322.80,3.87,0000 0000 0000 0000 000000
2013-12-13 00:11:25,0.03,0.42,0.00,26.74,27.90,31.11,5.91,29.50,1024.91,2039.99,3373.79,3205.99,3477.43,349.67,322.11,3.88,0000 0000 0000 0000 000000
2013-12-13 00:12:25,0.09,0.43,0.00,26.74,27.90,31.12,5.97,29.46,1024.91,2039.99,3373.33,3205.97,3477.16,349.70,322.26,3.89,0000 0000 0000 0000 000000
2013-12-13 00:13:26,0.08,0.43,0.00,26.70,27.90,31.10,5.88,29.58,1024.92,2039.99,3373.12,3205.88,3477.05,350.16,322.87,3.89,0000 0000 0000 0000 000000
2013-12-13 00:14:26,0.05,0.43,0.00,26.70,27.90,31.18,5.96,29.54,1024.90,2039.99,3373.04,3205.63,3477.00,350.15,322.29,3.90,0000 0000 0000 0000 000000
2013-12-13 00:15:26,0.07,0.43,0.00,26.72,27.90,31.14,5.96,29.75,1024.86,2039.99,3373.01,3205.31,3476.99,349.83,322.39,3.90,0000 0000 0000 0000 000000
2013-12-13 00:16:26,0.07,0.43,0.00,26.75,27.90,31.15,5.99,30.04,1024.69,2039.99,3372.79,3205.12,3476.92,350.55,323.00,3.91,0000 0000 0000 0000 000000
2013-12-13 00:17:27,0.09,0.43,0.00,26.73,27.90,31.05,5.93,29.46,1024.68,2039.99,3372.33,3205.05,3476.55,350.72,323.14,3.91,0000 0000 0000 0000 000000
2013-12-13 00:18:27,0.10,0.43,0.00,26.72,27.90,31.03,5.93,29.63,1024.83,2039.99,3372.12,3205.01,3476.22,349.87,322.96,3.92,0000 0000 0000 0000 000000
2013-12-13 00:19:27,0.06,0.43,0.00,26.70,27.90,31.07,5.89,29.50,1024.83,2039.99,3372.04,3205.00,3476.09,350.44,322.48,3.93,0000 0000 0000 0000 000000
2013-12-13 00:20:27,0.03,0.43,0.00,26.71,27.90,31.10,5.80,29.54,1024.64,2039.99,3371.84,3204.95,3476.02,349.88,322.38,3.93,0000 0000 0000 0000 000000
2013-12-13 00:21:28,0.05,0.43,0.00,26.72,27.90,31.09,5.98,29.67,1024.60,2039.99,3371.40,3204.72,3475.98,349.88,322.35,3.94,0000 0000 0000 0000 000000
2013-12-13 00:22:28,0.13,0.43,0.00,26.69,27.89,31.07,5.83,29.25,1024.66,2039.99,3371.14,3204.28,3475.66,349.96,322.51,3.94,0000 0000 0000 0000 000000
2013-12-13 00:23:28,0.15,0.43,0.00,26.68,27.89,31.09,5.93,29.58,1024.57,2039.99,3371.05,3204.10,3475.32,350.53,322.99,3.95,0000 0000 0000 0000 000000
2013-12-13 00:24:29,0.09,0.43,0.00,26.71,27.89,31.07,5.96,29.71,1024.47,2039.99,3370.97,3204.04,3475.13,350.49,322.88,3.96,0000 0000 0000 0000 000000
2013-12-13 00:25:29,0.05,0.43,0.00,26.69,27.89,31.08,5.75,29.58,1024.67,2039.99,3370.56,3204.01,3475.04,349.70,322.01,3.96,0000 0000 0000 0000 000000
2013-12-13 00:26:29,0.06,0.43,0.00,26.72,27.89,31.10,5.94,29.63,1024.64,2039.99,3370.22,3203.99,3475.01,350.40,322.84,3.97,0000 0000 0000 0000 000000
2013-12-13 00:27:30,0.05,0.43,0.00,26.70,27.88,31.08,5.91,29.54,1024.53,2039.99,3370.08,3203.93,3474.97,350.55,322.49,3.97,0000 0000 0000 0000 000000
2013-12-13 00:28:30,0.04,0.43,0.00,26.72,27.88,31.09,5.85,29.63,1024.45,2039.99,3370.02,3203.83,3474.89,349.77,322.20,3.98,0000 0000 0000 0000 000000
2013-12-13 00:29:30,0.04,0.43,0.00,26.71,27.88,31.07,5.92,29.63,1024.44,2039.99,3369.88,3203.61,3474.56,349.97,322.39,3.98,0000 0000 0000 0000 000000
2013-12-13 00:30:30,0.11,0.43,0.00,26.69,27.87,31.12,5.93,29.50,1024.45,2039.99,3369.43,3203.30,3474.24,351.10,323.57,3.99,0000 0000 0000 0000 000000
2013-12-13 00:31:30,0.15,0.43,0.00,26.68,27.87,31.04,5.81,29.67,1024.43,2039.99,3369.16,3203.13,3474.08,349.18,321.69,4.00,0000 0000 0000 0000 000000
2013-12-13 00:32:31,0.09,0.43,0.00,26.69,27.87,31.05,5.96,29.50,1024.42,2039.99,3369.05,3203.05,3474.03,349.62,322.08,4.00,0000 0000 0000 0000 000000
2013-12-13 00:33:31,0.03,0.44,0.00,26.69,27.87,31.07,5.99,29.54,1024.27,2039.99,3368.94,3203.01,3474.00,350.30,322.76,4.01,0000 0000 0000 0000 000000
2013-12-13 00:34:31,0.03,0.44,0.00,26.76,27.87,31.06,5.85,29.50,1024.16,2039.99,3368.57,3203.00,3473.96,348.98,321.34,4.01,0000 0000 0000 0000 000000
2013-12-13 00:35:31,0.06,0.44,0.00,26.79,27.87,31.07,6.02,29.67,1024.14,2039.99,3368.22,3202.94,3473.74,350.76,322.94,4.02,0000 0000 0000 0000 000000
2013-12-13 00:36:32,0.08,0.44,0.00,26.78,27.87,31.09,5.83,29.63,1024.12,2039.99,3368.07,3202.61,3473.33,349.45,321.60,4.03,0000 0000 0000 0000 000000
2013-12-13 00:37:32,0.14,0.44,0.00,26.74,27.87,31.09,5.79,29.71,1023.99,2039.99,3367.98,3202.26,3473.12,349.59,321.87,4.03,0000 0000 0000 0000 000000
2013-12-13 00:38:32,0.11,0.44,0.00,26.72,27.87,31.12,5.90,29.79,1023.94,2039.99,3367.59,3202.09,3473.04,350.14,322.79,4.04,0000 0000 0000 0000 000000
2013-12-13 00:39:32,0.09,0.44,0.00,26.70,27.87,31.08,5.79,29.67,1023.94,2039.99,3367.22,3202.03,3472.97,349.87,322.16,4.04,0000 0000 0000 0000 000000
2013-12-13 00:40:33,0.06,0.44,0.00,26.73,27.87,31.09,5.98,29.58,1023.94,2039.99,3367.08,3202.01,3472.86,350.52,322.73,4.05,0000 0000 0000 0000 000000
2013-12-13 00:41:33,0.04,0.44,0.00,26.72,27.87,31.09,5.82,29.58,1023.94,2039.99,3367.02,3201.97,3472.42,349.36,321.66,4.06,0000 0000 0000 0000 000000
2013-12-13 00:42:33,0.06,0.44,0.00,26.68,27.87,31.11,5.83,29.54,1023.94,2039.99,3366.77,3201.86,3472.18,349.57,321.76,4.06,0000 0000 0000 0000 000000
2013-12-13 00:43:33,0.12,0.44,0.00,26.65,27.87,31.10,6.02,29.96,1023.94,2039.99,3366.31,3201.42,3472.06,350.08,322.41,4.07,0000 0000 0000 0000 000000
2013-12-13 00:44:34,0.16,0.44,0.00,26.66,27.87,31.09,5.88,29.71,1023.94,2039.99,3366.11,3201.15,3472.00,349.58,321.93,4.07,0000 0000 0000 0000 000000
2013-12-13 00:45:34,0.08,0.44,0.00,26.67,27.87,31.11,5.93,29.63,1023.94,2039.99,3366.01,3201.05,3471.91,350.37,322.64,4.08,0000 0000 0000 0000 000000
2013-12-13 00:46:34,0.03,0.44,0.00,26.65,27.87,31.14,6.04,29.54,1023.94,2040.00,3365.84,3201.02,3471.77,350.33,322.63,4.08,0000 0000 0000 0000 000000
2013-12-13 00:47:34,0.06,0.44,0.00,26.63,27.87,31.10,5.99,29.63,1023.94,2040.00,3365.44,3201.00,3471.47,349.95,322.31,4.09,0000 0000 0000 0000 000000
2013-12-13 00:48:34,0.09,0.44,0.00,26.62,27.87,31.08,5.98,29.75,1023.94,2040.00,3365.17,3200.99,3471.18,350.05,321.97,4.10,0000 0000 0000 0000 000000
2013-12-13 00:49:35,0.07,0.44,0.00,26.66,27.87,31.06,5.92,29.71,1023.94,2040.01,3365.06,3200.90,3471.07,350.07,322.38,4.10,0000 0000 0000 0000 000000
2013-12-13 00:50:35,0.05,0.44,0.00,26.64,27.87,31.07,5.81,29.46,1023.94,2040.00,3364.94,3200.56,3471.02,349.93,322.34,4.11,0000 0000 0000 0000 000000
2013-12-13 00:51:35,0.10,0.44,0.00,26.63,27.87,31.13,5.75,29.38,1023.94,2040.01,3364.52,3200.24,3471.00,350.16,322.50,4.11,0000 0000 0000 0000 000000
2013-12-13 00:52:35,0.12,0.44,0.00,26.66,27.87,31.05,5.97,29.46,1023.94,2040.02,3364.20,3200.10,3470.80,350.39,323.18,4.12,0000 0000 0000 0000 000000
2013-12-13 00:53:36,0.10,0.45,0.00,26.68,27.87,31.07,5.81,29.54,1023.94,2040.01,3364.07,3200.03,3470.42,349.63,322.31,4.13,0000 0000 0000 0000 000000
2013-12-13 00:54:36,0.07,0.45,0.00,26.68,27.87,31.07,5.97,29.71,1023.95,2040.00,3363.91,3200.00,3470.16,350.21,322.49,4.13,0000 0000 0000 0000 000000
2013-12-13 00:55:36,0.05,0.45,0.00,26.65,27.87,31.05,5.93,29.75,1023.96,2040.00,3363.58,3199.94,3470.05,350.86,323.07,4.14,0000 0000 0000 0000 000000
2013-12-13 00:56:36,0.07,0.45,0.00,26.66,27.87,31.07,6.01,29.71,1023.95,2040.01,3363.22,3199.76,3470.02,349.80,322.42,4.14,0000 0000 0000 0000 000000
2013-12-13 00:57:37,0.09,0.45,0.00,26.66,27.87,31.05,5.84,29.96,1023.94,2040.00,3363.08,3199.38,3469.95,350.13,322.80,4.15,0000 0000 0000 0000 000000
2013-12-13 00:58:37,0.11,0.45,0.00,26.66,27.87,31.10,5.86,29.63,1023.94,2040.00,3363.01,3199.17,3469.77,350.26,321.83,4.15,0000 0000 0000 0000 000000
2013-12-13 00:59:37,0.07,0.45,0.00,26.63,27.87,31.10,5.89,29.92,1023.93,2040.00,3362.83,3199.06,3469.42,350.39,322.45,4.16,0000 0000 0000 0000 000000
2013-12-13 01:00:37,0.09,0.45,0.00,26.63,27.87,31.06,5.78,29.71,1023.92,2040.00,3362.45,3199.02,3469.17,349.31,322.37,4.17,0000 0000 0000 0000 000000
2013-12-13 01:01:37,0.08,0.45,0.00,26.61,27.86,31.04,5.95,29.67,1023.92,2040.00,3362.16,3199.00,3469.07,351.03,323.31,4.17,0000 0000 0000 0000 000000
2013-12-13 01:02:38,0.05,0.45,0.00,26.59,27.86,31.07,5.98,30.04,1023.92,2040.00,3362.04,3198.99,3469.01,349.89,322.28,4.18,0000 0000 0000 0000 000000
2013-12-13 01:03:38,0.02,0.45,0.00,26.61,27.86,31.09,5.90,30.13,1023.84,2040.00,3361.96,3198.96,3468.97,350.20,322.52,4.18,0000 0000 0000 0000 000000
2013-12-13 01:04:38,0.01,0.45,0.00,26.61,27.86,31.11,5.96,30.04,1023.90,2040.00,3361.69,3198.85,3468.82,349.96,322.32,4.19,0000 0000 0000 0000 000000
2013-12-13 01:05:39,0.09,0.45,0.00,26.59,27.85,31.09,5.94,29.92,1023.93,2040.01,3361.29,3198.56,3468.51,350.30,322.66,4.20,0000 0000 0000 0000 000000
2013-12-13 01:06:39,0.17,0.45,0.00,26.58,27.85,31.00,5.97,30.08,1023.94,2040.00,3361.10,3198.25,3468.23,349.96,322.37,4.20,0000 0000 0000 0000 000000
2013-12-13 01:07:39,0.11,0.45,0.00,26.59,27.85,31.01,5.83,29.88,1023.80,2040.02,3361.04,3198.11,3468.10,349.16,321.57,4.21,0000 0000 0000 0000 000000
2013-12-13 01:08:39,0.06,0.45,0.00,26.62,27.85,31.00,5.74,30.13,1023.57,2040.00,3360.97,3198.04,3468.03,349.06,321.50,4.21,0000 0000 0000 0000 000000
2013-12-13 01:09:39,0.02,0.45,0.00,26.58,27.85,31.03,5.88,29.96,1023.55,2040.00,3360.58,3198.00,3468.01,349.88,321.90,4.22,0000 0000 0000 0000 000000
2013-12-13 01:10:40,0.06,0.45,0.00,26.58,27.85,31.01,5.94,29.79,1023.52,2040.01,3360.22,3197.98,3467.90,349.49,321.93,4.23,0000 0000 0000 0000 000000
2013-12-13 01:11:40,0.07,0.45,0.00,26.59,27.85,31.08,5.95,30.38,1023.45,2040.01,3360.07,3197.88,3467.60,350.20,322.51,4.23,0000 0000 0000 0000 000000
2013-12-13 01:12:40,0.09,0.45,0.00,26.61,27.85,31.02,5.92,30.00,1023.45,2040.01,3360.01,3197.69,3467.25,350.12,322.33,4.24,0000 0000 0000 0000 000000
2013-12-13 01:13:40,0.07,0.45,0.00,26.60,27.85,31.04,5.93,30.00,1023.45,2040.02,3359.96,3197.44,3467.11,350.91,323.06,4.24,0000 0000 0000 0000 000000
2013-12-13 01:14:41,0.09,0.46,0.00,26.58,27.85,30.97,6.00,29.71,1023.42,2040.03,3359.61,3197.24,3467.05,350.58,322.78,4.25,0000 0000 0000 0000 000000
2013-12-13 01:15:41,0.11,0.46,0.00,26.56,27.85,31.01,5.83,29.79,1023.45,2040.07,3359.26,3197.12,3467.02,349.88,322.16,4.25,0000 0000 0000 0000 000000
2013-12-13 01:16:41,0.09,0.46,0.00,26.53,27.85,31.00,5.80,30.00,1023.45,2040.06,3359.10,3197.05,3466.99,349.52,321.87,4.26,0000 0000 0000 0000 000000
2013-12-13 01:17:41,0.05,0.46,0.00,26.57,27.85,31.02,5.93,29.83,1023.45,2040.06,3359.02,3197.01,3466.86,350.54,322.44,4.27,0000 0000 0000 0000 000000
2013-12-13 01:18:41,0.01,0.46,0.00,26.58,27.85,31.03,6.08,29.88,1023.48,2040.04,3358.87,3197.00,3466.54,350.01,322.27,4.27,0000 0000 0000 0000 000000
2013-12-13 01:19:41,0.04,0.46,0.00,26.54,27.85,31.02,5.86,29.75,1023.47,2040.02,3358.47,3196.96,3466.23,349.02,321.39,4.28,0000 0000 0000 0000 000000
2013-12-13 01:20:42,0.09,0.46,0.00,26.54,27.85,30.99,5.69,29.83,1023.47,2040.03,3358.17,3196.90,3466.09,349.64,322.07,4.28,0000 0000 0000 0000 000000
2013-12-13 01:21:42,0.07,0.46,0.00,26.52,27.85,31.00,6.03,29.96,1023.47,2040.03,3358.06,3196.66,3466.03,349.91,322.23,4.29,0000 0000 0000 0000 000000
2013-12-13 01:22:42,0.06,0.46,0.00,26.50,27.85,31.01,5.94,29.79,1023.46,2040.02,3358.01,3196.34,3466.01,351.00,323.40,4.30,0000 0000 0000 0000 000000
2013-12-13 01:23:42,0.08,0.46,0.00,26.52,27.85,31.03,5.98,29.71,1023.61,2040.06,3357.95,3196.16,3466.00,349.40,322.07,4.30,0000 0000 0000 0000 000000
2013-12-13 01:24:42,0.07,0.46,0.00,26.52,27.85,31.00,5.85,29.83,1023.50,2040.09,3357.66,3196.07,3465.99,349.78,322.12,4.31,0000 0000 0000 0000 000000
2013-12-13 01:25:43,0.08,0.46,0.00,26.50,27.85,31.01,5.95,29.79,1023.64,2040.13,3357.31,3196.03,3465.86,350.85,323.17,4.31,0000 0000 0000 0000 000000
2013-12-13 01:26:43,0.11,0.46,0.00,26.50,27.85,30.99,5.84,29.71,1023.82,2040.10,3357.11,3196.01,3465.50,349.99,322.18,4.32,0000 0000 0000 0000 000000
2013-12-13 01:27:43,0.03,0.46,0.00,26.50,27.85,31.01,6.02,29.63,1023.85,2040.13,3357.04,3196.00,3465.22,350.09,322.54,4.32,0000 0000 0000 0000 000000
2013-12-13 01:28:44,0.10,0.46,0.00,26.51,27.85,30.97,6.11,29.92,1023.85,2040.23,3357.00,3195.99,3465.10,350.52,322.93,4.33,0000 0000 0000 0000 000000
2013-12-13 01:29:44,0.10,0.46,0.00,26.49,27.85,30.95,5.84,29.75,1023.92,2040.32,3356.88,3195.96,3465.04,348.99,321.56,4.34,0000 0000 0000 0000 000000
2013-12-13 01:30:44,0.08,0.46,0.00,26.48,27.85,31.00,5.91,29.50,1023.94,2040.29,3356.46,3195.82,3465.01,350.94,323.46,4.34,0000 0000 0000 0000 000000
2013-12-13 01:31:44,0.05,0.46,0.00,26.51,27.85,30.97,5.81,29.63,1023.94,2040.22,3356.18,3195.51,3464.99,350.12,322.59,4.35,0000 0000 0000 0000 000000
2013-12-13 01:32:45,0.07,0.46,0.00,26.51,27.85,30.97,5.68,29.42,1023.93,2040.28,3356.06,3195.24,3464.95,348.58,321.40,4.35,0000 0000 0000 0000 000000
2013-12-13 01:33:45,0.13,0.46,0.00,26.50,27.84,30.96,5.83,29.63,1023.92,2040.29,3355.99,3195.09,3464.59,349.66,322.16,4.36,0000 0000 0000 0000 000000
2013-12-13 01:34:45,0.05,0.46,0.00,26.53,27.84,31.02,5.77,29.88,1023.93,2040.29,3355.79,3195.03,3464.23,348.91,321.45,4.37,0000 0000 0000 0000 000000
2013-12-13 01:35:45,0.11,0.47,0.00,26.52,27.83,30.97,5.74,29.58,1023.94,2040.24,3355.35,3195.01,3464.08,349.76,322.73,4.37,0000 0000 0000 0000 000000
2013-12-13 01:36:46,0.02,0.47,0.00,26.52,27.83,30.94,6.08,29.88,1023.93,2040.31,3355.13,3195.00,3464.03,351.12,323.44,4.38,0000 0000 0000 0000 000000
2013-12-13 01:37:46,0.11,0.47,0.00,26.53,27.82,30.96,5.98,29.88,1023.94,2040.42,3355.05,3195.00,3464.00,350.47,322.89,4.38,0000 0000 0000 0000 000000
2013-12-13 01:38:46,0.06,0.47,0.00,26.54,27.82,30.98,6.08,29.92,1023.90,2040.53,3355.02,3194.98,3463.99,350.50,322.89,4.39,0000 0000 0000 0000 000000
2013-12-13 01:39:46,0.13,0.47,0.00,26.54,27.82,30.97,6.15,29.75,1023.73,2040.55,3354.87,3194.68,3463.84,349.81,321.91,4.40,0000 0000 0000 0000 000000
2013-12-13 01:40:47,0.09,0.47,0.00,26.55,27.82,30.95,5.90,29.79,1023.69,2040.54,3354.52,3194.38,3463.57,350.32,323.24,4.40,0000 0000 0000 0000 000000
2013-12-13 01:41:47,0.19,0.47,0.00,26.55,27.82,30.96,5.89,29.79,1023.54,2040.52,3354.20,3194.16,3463.26,349.67,321.88,4.41,0000 0000 0000 0000 000000
2013-12-13 01:42:47,0.10,0.47,0.00,26.56,27.82,30.99,5.83,29.71,1023.46,2040.57,3354.08,3194.06,3463.10,349.35,321.99,4.41,0000 0000 0000 0000 000000
2013-12-13 01:43:47,0.07,0.47,0.00,26.54,27.82,31.04,5.91,29.83,1023.43,2040.53,3354.03,3194.02,3463.04,349.90,321.70,4.42,0000 0000 0000 0000 000000
2013-12-13 01:44:48,-0.02,0.47,0.00,26.50,27.82,30.98,5.91,29.88,1023.22,2040.43,3353.88,3193.98,3463.01,350.07,322.32,4.42,0000 0000 0000 0000 000000
2013-12-13 01:45:48,-0.04,0.47,0.00,26.51,27.82,30.97,5.72,29.79,1023.03,2040.38,3353.47,3193.85,3462.95,348.83,321.11,4.43,0000 0000 0000 0000 000000
2013-12-13 01:46:48,0.08,0.47,0.00,26.51,27.82,30.92,5.99,30.00,1022.95,2040.32,3353.18,3193.78,3462.78,350.35,322.49,4.44,0000 0000 0000 0000 000000
2013-12-13 01:47:48,0.03,0.47,0.00,26.50,27.82,30.94,5.98,30.08,1022.69,2040.39,3353.07,3193.81,3462.56,350.34,322.41,4.44,0000 0000 0000 0000 000000
2013-12-13 01:48:49,0.05,0.47,0.00,26.48,27.82,30.91,5.98,30.63,1022.48,2040.58,3353.02,3193.66,3462.30,350.33,322.35,4.45,0000 0000 0000 0000 000000
2013-12-13 01:49:49,0.25,0.47,0.00,26.46,27.82,30.91,5.93,30.50,1022.19,2040.65,3352.99,3193.30,3462.11,349.88,322.00,4.45,0000 0000 0000 0000 000000
2013-12-13 01:50:49,0.17,0.47,0.00,26.49,27.82,30.93,5.97,30.71,1022.00,2040.75,3352.84,3193.15,3462.04,350.58,322.42,4.46,0000 0000 0000 0000 000000
2013-12-13 01:51:49,0.13,0.47,0.00,26.49,27.82,30.90,5.92,30.58,1021.79,2040.85,3352.58,3193.06,3462.01,350.31,322.11,4.47,0000 0000 0000 0000 000000
2013-12-13 01:52:50,0.10,0.47,0.00,26.44,27.82,30.91,5.97,30.67,1021.54,2040.93,3352.29,3193.03,3462.00,350.06,321.85,4.47,0000 0000 0000 0000 000000
2013-12-13 01:53:50,0.13,0.48,0.00,26.42,27.81,30.97,5.82,30.71,1021.50,2040.94,3352.10,3193.00,3461.99,349.60,321.27,4.48,0000 0000 0000 0000 000000
2013-12-13 01:54:50,0.02,0.48,0.00,26.41,27.81,30.95,5.88,30.46,1021.49,2040.95,3352.03,3192.99,3461.85,349.40,320.94,4.48,0000 0000 0000 0000 000000
2013-12-13 01:55:51,0.03,0.48,0.00,26.42,27.80,30.97,5.98,30.25,1021.43,2040.96,3351.97,3192.98,3461.47,350.57,322.32,4.49,0000 0000 0000 0000 000000
2013-12-13 01:56:51,0.07,0.48,0.00,26.41,27.80,30.94,5.96,30.50,1021.19,2040.95,3351.61,3192.83,3461.20,350.52,322.19,4.49,0000 0000 0000 0000 000000
2013-12-13 01:57:51,0.11,0.48,0.00,26.37,27.80,30.89,5.79,30.71,1021.03,2040.95,3351.26,3192.56,3461.07,350.30,321.99,4.50,0000 0000 0000 0000 000000
2013-12-13 01:58:51,0.12,0.48,0.00,26.38,27.80,30.92,6.08,30.50,1021.01,2040.95,3351.10,3192.29,3461.02,350.83,322.46,4.51,0000 0000 0000 0000 000000
2013-12-13 01:59:52,0.09,0.48,0.00,26.40,27.80,30.91,6.00,30.96,1021.01,2040.97,3351.03,3192.14,3461.00,349.79,321.72,4.51,0000 0000 0000 0000 000000
2013-12-13 02:00:52,0.04,0.48,0.00,26.39,27.80,30.93,5.81,30.67,1021.00,2040.97,3350.83,3192.04,3460.74,348.97,320.85,4.52,0000 0000 0000 0000 000000
2013-12-13 02:01:52,0.09,0.48,0.00,26.38,27.80,30.97,6.06,30.92,1021.01,2040.97,3350.35,3191.98,3460.30,351.05,322.29,4.52,0000 0000 0000 0000 000000
2013-12-13 02:02:52,0.12,0.48,0.00,26.39,27.80,30.97,6.00,30.42,1021.00,2040.97,3350.13,3191.87,3460.11,349.89,321.58,4.53,0000 0000 0000 0000 000000
2013-12-13 02:03:53,0.07,0.48,0.00,26.44,27.80,30.96,5.97,30.25,1021.01,2040.96,3350.05,3191.55,3460.04,350.19,321.81,4.54,0000 0000 0000 0000 000000
2013-12-13 02:04:53,0.09,0.48,0.00,26.41,27.80,30.89,5.95,30.29,1021.07,2040.98,3350.00,3191.28,3460.00,349.77,321.46,4.54,0000 0000 0000 0000 000000
2013-12-13 02:05:53,0.07,0.48,0.00,26.41,27.80,30.88,5.80,30.13,1021.42,2040.99,3349.76,3191.11,3459.89,350.62,322.43,4.55,0000 0000 0000 0000 000000
2013-12-13 02:06:53,0.09,0.48,0.00,26.42,27.80,30.90,5.96,30.46,1021.52,2040.99,3349.39,3191.04,3459.59,350.31,322.10,4.55,0000 0000 0000 0000 000000
2013-12-13 02:07:54,0.10,0.48,0.00,26.41,27.79,30.89,6.08,30.21,1021.58,2040.98,3349.15,3191.01,3459.29,351.22,322.97,4.56,0000 0000 0000 0000 000000
2013-12-13 02:08:54,0.05,0.48,0.00,26.38,27.78,30.89,5.86,30.00,1021.61,2040.97,3349.05,3191.00,3459.12,349.79,321.61,4.56,0000 0000 0000 0000 000000
2013-12-13 02:09:54,0.04,0.48,0.00,26.39,27.77,30.89,5.84,29.75,1021.94,2040.98,3349.01,3190.98,3459.04,349.67,321.55,4.57,0000 0000 0000 0000 000000
2013-12-13 02:10:55,0.02,0.48,0.00,26.39,27.77,30.92,6.06,29.75,1022.16,2040.99,3348.94,3190.92,3459.01,350.05,322.09,4.58,0000 0000 0000 0000 000000
2013-12-13 02:11:55,0.04,0.48,0.00,26.36,27.77,30.90,5.98,30.13,1022.44,2040.99,3348.58,3190.64,3459.00,350.63,322.74,4.58,0000 0000 0000 0000 000000
2013-12-13 02:12:55,0.11,0.48,0.00,26.36,27.77,30.88,6.02,29.88,1022.48,2040.99,3348.25,3190.35,3458.90,349.81,322.01,4.59,0000 0000 0000 0000 000000
2013-12-13 02:13:55,0.12,0.48,0.00,26.38,27.77,30.96,5.94,29.71,1022.63,2040.99,3348.09,3190.16,3458.51,350.23,322.64,4.59,0000 0000 0000 0000 000000
2013-12-13 02:14:55,0.11,0.49,0.00,26.37,27.77,30.86,6.02,29.88,1022.91,2040.99,3348.03,3190.06,3458.21,350.19,322.10,4.60,0000 0000 0000 0000 000000
2013-12-13 02:15:56,0.05,0.49,0.00,26.37,27.77,30.84,6.08,29.83,1022.97,2040.99,3347.99,3190.02,3458.08,350.61,322.83,4.61,0000 0000 0000 0000 000000
2013-12-13 02:16:56,0.02,0.49,0.00,26.39,27.77,30.83,5.84,29.71,1023.12,2040.99,3347.79,3190.00,3458.03,349.52,322.04,4.61,0000 0000 0000 0000 000000
2013-12-13 02:17:56,0.03,0.49,0.00,26.40,27.76,30.87,5.93,29.67,1023.22,2040.99,3347.36,3190.00,3458.00,349.15,321.58,4.62,0000 0000 0000 0000 000000
2013-12-13 02:18:57,0.05,0.49,0.00,26.41,27.75,30.86,6.00,29.58,1023.37,2040.99,3347.13,3189.99,3457.99,349.97,322.52,4.62,0000 0000 0000 0000 000000
2013-12-13 02:19:57,0.03,0.49,0.00,26.40,27.75,30.86,5.99,29.63,1023.42,2040.99,3347.05,3189.91,3457.92,350.64,322.60,4.63,0000 0000 0000 0000 000000
2013-12-13 02:20:57,0.05,0.49,0.00,26.41,27.75,30.88,5.76,29.75,1023.45,2040.99,3347.00,3189.54,3457.50,349.61,322.14,4.64,0000 0000 0000 0000 000000
2013-12-13 02:21:57,0.14,0.49,0.00,26.42,27.75,30.87,5.80,29.46,1023.45,2040.99,3346.81,3189.26,3457.21,349.80,322.23,4.64,0000 0000 0000 0000 000000
2013-12-13 02:22:58,0.11,0.49,0.00,26.40,27.75,30.83,5.85,29.54,1023.45,2040.99,3346.44,3189.11,3457.08,349.11,321.62,4.65,0000 0000 0000 0000 000000
2013-12-13 02:23:58,0.09,0.49,0.00,26.44,27.75,30.82,6.10,29.58,1023.38,2040.99,3346.20,3189.05,3457.03,350.66,322.99,4.65,0000 0000 0000 0000 000000
2013-12-13 02:24:58,0.05,0.49,0.00,26.45,27.75,30.82,5.87,29.67,1023.23,2040.99,3346.08,3189.01,3457.00,350.79,323.04,4.66,0000 0000 0000 0000 000000
2013-12-13 02:25:59,0.02,0.49,0.00,26.46,27.75,30.86,5.77,29.83,1023.13,2040.99,3346.03,3189.00,3457.00,349.77,322.07,4.66,0000 0000 0000 0000 000000
2013-12-13 02:26:59,0.01,0.49,0.00,26.44,27.75,30.86,5.89,29.92,1022.98,2040.99,3345.98,3189.00,3456.98,349.84,322.18,4.67,0000 0000 0000 0000 000000
2013-12-13 02:27:59,0.01,0.49,0.00,26.44,27.74,30.84,5.74,29.88,1022.97,2040.99,3345.88,3188.98,3456.89,348.70,320.98,4.68,0000 0000 0000 0000 000000
2013-12-13 02:28:59,0.04,0.49,0.00,26.43,27.73,30.84,5.96,29.88,1022.96,2040.99,3345.47,3188.94,3456.56,349.61,321.90,4.68,0000 0000 0000 0000 000000
2013-12-13 02:30:00,0.10,0.49,0.00,26.44,27.72,30.84,5.83,30.13,1022.96,2040.99,3345.20,3188.77,3456.24,349.94,322.18,4.69,0000 0000 0000 0000 000000
2013-12-13 02:31:00,0.10,0.49,0.00,26.42,27.72,30.85,5.91,30.17,1022.94,2040.99,3345.07,3188.47,3456.08,350.62,322.82,4.69,0000 0000 0000 0000 000000
2013-12-13 02:32:00,0.10,0.49,0.00,26.40,27.72,30.86,5.90,30.21,1022.95,2040.99,3345.02,3188.22,3456.03,350.00,322.29,4.70,0000 0000 0000 0000 000000
2013-12-13 02:33:00,0.07,0.49,0.00,26.42,27.72,30.85,5.98,29.96,1022.96,2040.99,3344.92,3188.09,3456.01,350.27,322.53,4.71,0000 0000 0000 0000 000000
2013-12-13 02:34:00,0.05,0.49,0.00,26.41,27.72,30.82,5.87,30.29,1022.96,2040.99,3344.49,3188.03,3456.00,350.21,322.44,4.71,0000 0000 0000 0000 000000
2013-12-13 02:35:01,0.07,0.49,0.00,26.41,27.72,30.86,5.89,30.08,1022.98,2040.99,3344.19,3188.01,3455.97,349.94,322.22,4.72,0000 0000 0000 0000 000000
2013-12-13 02:36:01,0.04,0.49,0.00,26.43,27.72,30.85,5.78,29.79,1023.00,2041.00,3344.07,3188.00,3455.71,350.21,322.46,4.72,0000 0000 0000 0000 000000
2013-12-13 02:37:01,0.05,0.49,0.00,26.44,27.72,30.83,5.89,30.04,1023.07,2041.02,3344.02,3188.00,3455.42,349.77,321.87,4.73,0000 0000 0000 0000 000000